Location: Cactus School
(34.5700°N, 118.0931°W)
Time: 00:06:25
(UTC-08:00)

Tiros 1 - Pass Details

Date: 28 November 2019
Orbit: 630 x 664 km, 48.4° (Epoch: 11 December)

Event Time Altitude Azimuth Distance (km) Brightness Sun altitude
Rises 10:47:29 0° 255° (WSW) 2,925 10.5 32.7°
Reaches altitude 10° 10:49:58 10° 263° (W) 2,014 9.7 32.8°
Maximum altitude 10:54:15 37° 331° (NNW) 992 8.0 33.0°
Drops below altitude 10° 10:58:32 10° 39° (NE) 2,009 9.4 33.2°
Sets 11:01:00 0° 48° (NE) 2,917 10.3 33.3°
